カタログに戻る

ONEWEB-0212

運用中通信PO
NORAD 48791·PAYLOAD·🇬🇧 United Kingdom

打ち上げ May 28, 2021 から Vostochny Cosmodrome

Loading…

次のパス (今後24時間)

TLE

最新Source: CelesTrak SupGP

元期: Sep 14, 2026, 17:44 UTC

1 48791C 21045AA  26257.73942546  .00001847  00000+0  49120-2 0  2577
2 48791  87.8984 241.3369 0002158  86.2867 321.3969 13.15545511    11

AllMySatでONEWEB-0212をリアルタイム追跡

Download on the App Store